This is the latest recevied weather packets stored in our database for station/object SP3WRO-13. If no packets are shown the sender has not sent any weather packets the latest 1 day(s).
| Time | Temp. | Humidity | Pressure | Rain* | Wind** | Luminosity | Snow |
|---|---|---|---|---|---|---|---|
| 1778030998 | 10° C | 95% | 1003.9 hPa | - | 0.45 m/s, 270° | - | - |
| 1778030098 | 10° C | 95% | 1003.3 hPa | - | 0.89 m/s, 354° | - | - |
| 1778029198 | 10° C | 95% | 1003.4 hPa | - | 0.89 m/s, 36° | - | - |
| 1778028297 | 10° C | 95% | 1003.6 hPa | - | 0.89 m/s, 30° | - | - |
| 1778027397 | 10° C | 95% | 1003.6 hPa | - | 0.45 m/s, 5° | - | - |
| 1778026497 | 10° C | 95% | 1003.6 hPa | - | 0.89 m/s, 0° | - | - |
| 1778025597 | 10° C | 95% | 1003.6 hPa | - | 0.89 m/s, 30° | - | - |
| 1778024697 | 10.56° C | 94% | 1003.5 hPa | - | 1.34 m/s, 17° | - | - |
| 1778023797 | 10.56° C | 92% | 1003.7 hPa | - | 1.34 m/s, 72° | - | - |
| 1778022897 | 10.56° C | 93% | 1003.9 hPa | - | 0.89 m/s, 12° | - | - |
| 1778021997 | 10.56° C | 94% | 1004.2 hPa | - | 0.45 m/s, 342° | - | - |
| 1778021097 | 10.56° C | 95% | 1004 hPa | - | 0.45 m/s, 78° | - | - |
| 1778020197 | 10.56° C | 96% | 1004.3 hPa | - | 0.45 m/s, 228° | - | - |
| 1778019297 | 10.56° C | 96% | 1004.2 hPa | - | 0.89 m/s, 90° | - | - |
| 1778018397 | 10.56° C | 96% | 1004.3 hPa | - | 0 m/s | - | - |
| 1778017496 | 10.56° C | 96% | 1004.4 hPa | - | 0.45 m/s, 48° | - | - |
| 1778016596 | 10.56° C | 96% | 1004.4 hPa | - | 0 m/s | - | - |
| 1778015697 | 10.56° C | 96% | 1004.4 hPa | - | 0 m/s | - | - |
| 1778014795 | 10.56° C | 96% | 1004.5 hPa | - | 0 m/s | - | - |
| 1778013895 | 10.56° C | 96% | 1004.6 hPa | - | 0 m/s | - | - |
| 1778012995 | 11.11° C | 95% | 1004.7 hPa | - | 0 m/s | - | - |
| 1778012095 | 11.11° C | 95% | 1004.7 hPa | - | 0 m/s | - | - |
| 1778011195 | 11.11° C | 94% | 1004.7 hPa | - | 0 m/s | - | - |
| 1778010295 | 11.67° C | 94% | 1004.6 hPa | - | 0 m/s | - | - |
| 1778009395 | 11.67° C | 94% | 1004.6 hPa | - | 0 m/s | - | - |
* Rain since midnight (hover to see other rain measurements)
** Current wind speed in m/s (hover to see current wind gust speed)